Orlando International, FL

4:52 AM EDT on October 17, 2017 (GMT -0400)
Orlando International

Weather History for KMCO - October, 2012

Change the Weather History Date:

Wednesday, October 3, 2012

  Actual Average Record
Temperature  
Mean Temperature 82 °F 79 °F  
Max Temperature 91 °F 87 °F 96 °F (1923)
Min Temperature 73 °F 70 °F 54 °F (1920)
Degree Days  
Heating Degree Days 0 0  
Month to date heating degree days 0 0  
Since 1 July heating degree days 0 0  
Cooling Degree Days 17 14  
Month to date cooling degree days 49 42  
Year to date cooling degree days 3139 2918  
Growing Degree Days 32 (Base 50)    
Moisture  
Dew Point 74 °F    
Average Humidity 80    
Maximum Humidity 100    
Minimum Humidity 59    
Precipitation  
Precipitation 0.20 in 0.15 in 2.12 in (1912)
Month to date precipitation 0.72 0.47  
Year to date precipitation 38.08 43.14  
Sea Level Pressure  
Sea Level Pressure 30.11 in    
Wind  
Wind Speed 6 mph (South)    
Max Wind Speed 21 mph    
Max Gust Speed 26 mph    
Visibility 10 miles    
Events Rain , Thunderstorm    
T = Trace of Precipitation, MM = Missing Value Source: NWS Daily Summary

Daily Weather History Graph

Daily Weather History Graph

Search for Another Location

Airport or City:

Trip Planner

Search our weather history database for the weather conditions in past years. The results will help you decide how hot, cold, wet, or windy it might be!

Date:

Astronomy

Oct. 03, 2012 Rise Set
Actual Time 7:19 AM EDT 7:08 PM EDT
Civil Twilight 6:56 AM EDT 7:31 PM EDT
Nautical Twilight 6:28 AM EDT 7:59 PM EDT
Astronomical Twilight 6:01 AM EDT 8:26 PM EDT
Moon 9:19 PM EDT (10/3) 10:22 AM EDT (10/3)
Length of Visible Light 12h 35m
Length of Day
11h 48m
Waning Gibbous, 89% of the Moon is Illuminated
Oct 3
Waning Gibbous
Oct 8
Last Quarter
Oct 15
New
Oct 21
First Quarter
Oct 29
Full

Hourly Weather History & Observations

Time (EDT) Temp. Heat Index Dew Point Humidity Pressure Visibility Wind Dir Wind Speed Gust Speed Precip Events Conditions
12:53 AM 73.0 °F - 73.0 °F 100% 30.04 in 10.0 mi SSE 3.5 mph - N/A   Mostly Cloudy
1:53 AM 73.0 °F - 73.0 °F 100% 30.04 in 10.0 mi South 5.8 mph - N/A   Mostly Cloudy
2:53 AM 73.0 °F - 73.0 °F 100% 30.04 in 10.0 mi South 3.5 mph - N/A   Mostly Cloudy
3:53 AM 73.9 °F - 73.0 °F 97% 30.05 in 10.0 mi Calm Calm - N/A   Mostly Cloudy
4:49 AM 73.4 °F - 73.4 °F 100% 30.06 in 10.0 mi SSE 5.8 mph - N/A   Mostly Cloudy
4:53 AM 73.9 °F - 73.0 °F 97% 30.06 in 10.0 mi South 5.8 mph - N/A   Mostly Cloudy
5:53 AM 75.0 °F - 73.9 °F 96% 30.07 in 10.0 mi South 3.5 mph - 0.01 in   Overcast
6:53 AM 75.0 °F - 75.0 °F 100% 30.09 in 10.0 mi Calm Calm - N/A   Mostly Cloudy
7:53 AM 75.0 °F - 75.0 °F 100% 30.09 in 10.0 mi South 4.6 mph - 0.00 in   Mostly Cloudy
8:53 AM 75.9 °F - 75.0 °F 97% 30.10 in 10.0 mi SE 4.6 mph - N/A   Mostly Cloudy
9:53 AM 77.0 °F - 75.0 °F 94% 30.13 in 10.0 mi SSE 5.8 mph - N/A   Overcast
10:38 AM 78.8 °F - 75.2 °F 89% 30.14 in 10.0 mi SSE 4.6 mph - N/A   Mostly Cloudy
10:50 AM 78.8 °F - 75.2 °F 89% 30.13 in 10.0 mi Variable 5.8 mph - N/A   Mostly Cloudy
10:53 AM 79.0 °F - 75.9 °F 90% 30.13 in 10.0 mi South 5.8 mph - N/A   Mostly Cloudy
11:53 AM 82.0 °F 89.4 °F 75.9 °F 82% 30.13 in 10.0 mi SSE 6.9 mph - N/A   Mostly Cloudy
12:53 PM 86.0 °F 96.0 °F 75.9 °F 72% 30.11 in 10.0 mi South 8.1 mph - N/A   Mostly Cloudy
1:53 PM 87.1 °F 96.3 °F 75.0 °F 67% 30.10 in 10.0 mi South 11.5 mph 16.1 mph N/A   Mostly Cloudy
2:53 PM 89.1 °F 98.0 °F 73.9 °F 61% 30.08 in 10.0 mi South 8.1 mph - N/A   Mostly Cloudy
3:53 PM 91.0 °F 101.6 °F 75.0 °F 59% 30.08 in 10.0 mi SW 11.5 mph - N/A   Mostly Cloudy
4:53 PM 79.0 °F - 72.0 °F 79% 30.11 in 10.0 mi WNW 16.1 mph 26.5 mph 0.00 in Rain Light Rain
5:00 PM 78.8 °F - 71.6 °F 78% 30.11 in 10.0 mi WNW 18.4 mph 25.3 mph N/A Rain Light Rain
5:32 PM 78.8 °F - 71.6 °F 78% 30.11 in 10.0 mi West 11.5 mph - 0.00 in Thunderstorm Thunderstorm
5:53 PM 77.0 °F - 73.0 °F 88% 30.12 in 5.0 mi WSW 8.1 mph - 0.08 in Rain , Thunderstorm Heavy Thunderstorms and Rain
6:21 PM 75.2 °F - 73.4 °F 94% 30.12 in 10.0 mi West 9.2 mph - 0.08 in Rain Light Rain
6:53 PM 75.9 °F - 73.9 °F 94% 30.13 in 10.0 mi West 5.8 mph - 0.08 in   Overcast
7:53 PM 75.9 °F - 73.9 °F 94% 30.16 in 10.0 mi Calm Calm - 0.03 in Rain Light Rain
8:18 PM 75.2 °F - 73.4 °F 94% 30.16 in 10.0 mi Calm Calm - 0.00 in Rain Light Rain
8:30 PM 75.2 °F - 73.4 °F 94% 30.16 in 10.0 mi Calm Calm - 0.00 in   Overcast
8:53 PM 75.9 °F - 73.9 °F 94% 30.16 in 10.0 mi NE 4.6 mph - 0.00 in   Overcast
9:53 PM 75.0 °F - 73.9 °F 96% 30.17 in 10.0 mi ENE 6.9 mph - N/A   Mostly Cloudy
10:53 PM 75.0 °F - 73.0 °F 94% 30.19 in 10.0 mi East 3.5 mph - N/A   Mostly Cloudy
11:53 PM 75.0 °F - 73.0 °F 94% 30.19 in 10.0 mi NE 4.6 mph - N/A   Mostly Cloudy